| time (UTC) | temp C | wind direction | speed KPH | gust KPH | rain 1hr cm | rain 24hr cm | rain mn cm | humidity % | barometer mb |
| 20260504182515 | 25 | 236 | 1.6 | 1.6 | 0.00 | 0.00 | 0.00 | 34 | 1011.2 |
| 20260504182013 | 25 | 188 | 1.6 | 1.6 | 0.00 | 0.00 | 0.00 | 32 | 1011.1 |
| 20260504181510 | 25 | 243 | 3.2 | 3.2 | 0.00 | 0.00 | 0.00 | 33 | 1011.3 |
| 20260504181009 | 25 | 240 | 3.2 | 3.2 | 0.00 | 0.00 | 0.00 | 34 | 1011.4 |
| 20260504180507 | 25 | 278 | 1.6 | 1.6 | 0.00 | 0.00 | 0.00 | 32 | 1011.0 |
| 20260504180005 | 26 | 233 | 1.6 | 1.6 | 0.00 | 0.00 | 0.00 | 33 | 1011.3 |
| 20260504175502 | 25 | 281 | 1.6 | 1.6 | 0.00 | 0.00 | 0.00 | 34 | 1011.3 |
| 20260504174959 | 25 | 263 | 1.6 | 1.6 | 0.00 | 0.00 | 0.00 | 33 | 1011.3 |
| 20260504174457 | 25 | 262 | 0.0 | 0.0 | 0.00 | 0.00 | 0.00 | 34 | 1011.2 |
| 20260504173954 | 25 | 281 | 1.6 | 3.2 | 0.00 | 0.00 | 0.00 | 37 | 1011.5 |
| 20260504173450 | 25 | 256 | 3.2 | 3.2 | 0.00 | 0.00 | 0.00 | 34 | 1011.4 |
| 20260504172948 | 24 | 259 | 1.6 | 1.6 | 0.00 | 0.00 | 0.00 | 33 | 1011.5 |
| 20260504172443 | 24 | 239 | 1.6 | 3.2 | 0.00 | 0.00 | 0.00 | 34 | 1011.6 |
| 20260504171940 | 24 | 269 | 1.6 | 1.6 | 0.00 | 0.00 | 0.00 | 38 | 1011.7 |
| 20260504171437 | 23 | 34 | 3.2 | 3.2 | 0.00 | 0.00 | 0.00 | 36 | 1011.4 |
| 20260504170934 | 24 | 34 | 8.0 | 8.0 | 0.00 | 0.00 | 0.00 | 35 | 1011.9 |
| 20260504170430 | 24 | 265 | 1.6 | 1.6 | 0.00 | 0.00 | 0.00 | 35 | 1011.9 |
| 20260504160349 | 23 | 61 | 3.2 | 4.8 | 0.00 | 0.00 | 0.00 | 37 | 1013.0 |
| 20260504150814 | 21 | 184 | 1.6 | 1.6 | 0.00 | 0.00 | 0.00 | 42 | 1013.4 |
| 20260504150311 | 21 | 275 | 1.6 | 1.6 | 0.00 | 0.00 | 0.00 | 44 | 1013.3 |
| 20260504141241 | 17 | 281 | 1.6 | 1.6 | 0.00 | 0.00 | 0.00 | 57 | 1013.1 |
| 20260504140737 | 17 | 47 | 3.2 | 3.2 | 0.00 | 0.00 | 0.00 | 59 | 1013.3 |
| 20260504140233 | 17 | 338 | 1.6 | 3.2 | 0.00 | 0.00 | 0.00 | 60 | 1013.3 |
| 20260504130702 | 13 | 231 | 0.0 | 0.0 | 0.00 | 0.00 | 0.00 | 71 | 1013.1 |
| 20260504130158 | 13 | 234 | 0.0 | 1.6 | 0.00 | 0.00 | 0.00 | 70 | 1013.2 |
| 20260504120122 | 9 | 252 | 0.0 | 0.0 | 0.00 | 0.00 | 0.00 | 84 | 1013.1 |
| 20260504110549 | 3 | 288 | 0.0 | 0.0 | 0.00 | 0.00 | 0.00 | 99 | 1013.0 |
| 20260504100511 | 3 | 288 | 0.0 | 0.0 | 0.00 | 0.00 | 0.00 | 98 | 1013.0 |
| 20260504081904 | 3 | 286 | 0.0 | 0.0 | 0.00 | 0.00 | 0.00 | 97 | 1012.7 |
| 20260504081401 | 4 | 286 | 0.0 | 0.0 | 0.00 | 0.00 | 0.00 | 97 | 1012.8 |
| 20260504080856 | 4 | 286 | 0.0 | 0.0 | 0.00 | 0.00 | 0.00 | 96 | 1012.9 |
| 20260504080354 | 4 | 286 | 0.0 | 0.0 | 0.00 | 0.00 | 0.00 | 96 | 1012.6 |
| 20260504070321 | 5 | 354 | 0.0 | 0.0 | 0.00 | 0.00 | 0.00 | 95 | 1012.7 |
| 20260504060242 | 5 | 354 | 0.0 | 0.0 | 0.00 | 0.00 | 0.00 | 94 | 1013.1 |
| 20260504050703 | 6 | 354 | 0.0 | 0.0 | 0.00 | 0.00 | 0.00 | 92 | 1013.0 |
| 20260504050200 | 6 | 354 | 0.0 | 0.0 | 0.00 | 0.00 | 0.00 | 92 | 1013.1 |
| 20260504045657 | 6 | 354 | 0.0 | 0.0 | 0.00 | 0.00 | 0.00 | 92 | 1012.9 |
| 20260504045152 | 6 | 355 | 0.0 | 0.0 | 0.00 | 0.00 | 0.00 | 92 | 1013.0 |
| 20260504044650 | 6 | 356 | 1.6 | 1.6 | 0.00 | 0.00 | 0.00 | 91 | 1012.9 |
| 20260504044147 | 6 | 231 | 0.0 | 0.0 | 0.00 | 0.00 | 0.00 | 91 | 1012.7 |
| 20260504043644 | 6 | 231 | 0.0 | 0.0 | 0.00 | 0.00 | 0.00 | 91 | 1012.8 |
| 20260504043141 | 6 | 231 | 0.0 | 0.0 | 0.00 | 0.00 | 0.00 | 91 | 1012.7 |
| 20260504042639 | 6 | 231 | 0.0 | 0.0 | 0.00 | 0.00 | 0.00 | 91 | 1012.9 |
| 20260504042135 | 6 | 231 | 0.0 | 0.0 | 0.00 | 0.00 | 0.00 | 90 | 1012.8 |
| 20260504041631 | 6 | 231 | 0.0 | 0.0 | 0.00 | 0.00 | 0.00 | 90 | 1012.8 |
| 20260504041127 | 6 | 231 | 0.0 | 0.0 | 0.00 | 0.00 | 0.00 | 90 | 1012.9 |
| 20260504040624 | 6 | 231 | 0.0 | 0.0 | 0.00 | 0.00 | 0.00 | 90 | 1012.8 |
| 20260504040121 | 6 | 231 | 0.0 | 0.0 | 0.00 | 0.00 | 0.00 | 90 | 1012.9 |
| 20260504035618 | 6 | 231 | 0.0 | 0.0 | 0.00 | 0.00 | 0.00 | 90 | 1013.0 |
| 20260504035114 | 6 | 231 | 0.0 | 0.0 | 0.00 | 0.00 | 0.00 | 89 | 1012.9 |
| 20260504034613 | 6 | 231 | 0.0 | 0.0 | 0.00 | 0.00 | 0.00 | 89 | 1012.8 |
| 20260504034109 | 6 | 231 | 0.0 | 0.0 | 0.00 | 0.00 | 0.00 | 89 | 1012.8 |
| 20260504033607 | 6 | 231 | 0.0 | 0.0 | 0.00 | 0.00 | 0.00 | 89 | 1013.0 |
| 20260504033104 | 7 | 231 | 0.0 | 0.0 | 0.00 | 0.00 | 0.00 | 88 | 1013.0 |
| 20260504032601 | 7 | 231 | 0.0 | 0.0 | 0.00 | 0.00 | 0.00 | 88 | 1013.1 |
| 20260504032058 | 7 | 231 | 0.0 | 0.0 | 0.00 | 0.00 | 0.00 | 88 | 1013.0 |
| 20260504031555 | 7 | 231 | 0.0 | 0.0 | 0.00 | 0.00 | 0.00 | 87 | 1013.1 |
| 20260504031051 | 7 | 231 | 0.0 | 0.0 | 0.00 | 0.00 | 0.00 | 87 | 1013.2 |
| 20260504030548 | 7 | 231 | 0.0 | 0.0 | 0.00 | 0.00 | 0.00 | 86 | 1013.0 |
| 20260504030044 | 7 | 231 | 0.0 | 0.0 | 0.00 | 0.00 | 0.00 | 86 | 1013.2 |
| 20260504025542 | 7 | 231 | 0.0 | 0.0 | 0.00 | 0.00 | 0.00 | 85 | 1013.3 |
| 20260504025038 | 7 | 231 | 0.0 | 0.0 | 0.00 | 0.00 | 0.00 | 85 | 1013.3 |
| 20260504024535 | 7 | 231 | 0.0 | 0.0 | 0.00 | 0.00 | 0.00 | 85 | 1013.2 |
| 20260504024032 | 7 | 231 | 0.0 | 0.0 | 0.00 | 0.00 | 0.00 | 85 | 1013.1 |
| 20260504023529 | 7 | 231 | 0.0 | 0.0 | 0.00 | 0.00 | 0.00 | 84 | 1013.2 |
| 20260504023025 | 8 | 231 | 0.0 | 0.0 | 0.00 | 0.00 | 0.00 | 84 | 1013.0 |
| 20260504022520 | 8 | 231 | 0.0 | 0.0 | 0.00 | 0.00 | 0.00 | 83 | 1013.2 |
| 20260504022017 | 8 | 231 | 0.0 | 0.0 | 0.00 | 0.00 | 0.00 | 83 | 1013.0 |
| 20260504021515 | 8 | 231 | 0.0 | 0.0 | 0.00 | 0.00 | 0.00 | 83 | 1012.8 |
| 20260504021012 | 8 | 231 | 0.0 | 0.0 | 0.00 | 0.00 | 0.00 | 82 | 1012.7 |
| 20260504020509 | 8 | 231 | 0.0 | 0.0 | 0.00 | 0.00 | 0.00 | 81 | 1012.7 |
| 20260504020005 | 8 | 231 | 0.0 | 0.0 | 0.00 | 0.00 | 0.00 | 80 | 1012.5 |
| 20260504015502 | 8 | 231 | 0.0 | 0.0 | 0.00 | 0.00 | 0.00 | 79 | 1012.5 |
| 20260504014957 | 8 | 231 | 0.0 | 0.0 | 0.00 | 0.00 | 0.00 | 79 | 1012.2 |
| 20260504014453 | 9 | 231 | 0.0 | 0.0 | 0.00 | 0.00 | 0.00 | 78 | 1012.2 |
| 20260504013950 | 9 | 231 | 0.0 | 0.0 | 0.00 | 0.00 | 0.00 | 77 | 1012.3 |
| 20260504013449 | 9 | 231 | 0.0 | 0.0 | 0.00 | 0.00 | 0.00 | 77 | 1012.3 |
| 20260504012944 | 10 | 231 | 0.0 | 0.0 | 0.00 | 0.00 | 0.00 | 75 | 1012.2 |
| 20260504012443 | 10 | 231 | 0.0 | 0.0 | 0.00 | 0.00 | 0.00 | 75 | 1012.1 |
| 20260504011941 | 10 | 231 | 0.0 | 0.0 | 0.00 | 0.00 | 0.00 | 74 | 1012.3 |
| 20260504011437 | 10 | 231 | 0.0 | 0.0 | 0.00 | 0.00 | 0.00 | 73 | 1012.1 |
| 20260504010933 | 10 | 231 | 0.0 | 0.0 | 0.00 | 0.00 | 0.00 | 73 | 1012.0 |
| 20260504010429 | 10 | 231 | 0.0 | 0.0 | 0.00 | 0.00 | 0.00 | 72 | 1012.0 |
| 20260504005925 | 11 | 231 | 0.0 | 0.0 | 0.00 | 0.00 | 0.00 | 71 | 1012.0 |
| 20260504005422 | 11 | 230 | 0.0 | 0.0 | 0.00 | 0.00 | 0.00 | 70 | 1011.8 |
| 20260504004919 | 11 | 230 | 0.0 | 0.0 | 0.00 | 0.00 | 0.00 | 68 | 1011.9 |
| 20260504004417 | 11 | 230 | 0.0 | 0.0 | 0.00 | 0.00 | 0.00 | 68 | 1012.0 |
| 20260504003914 | 12 | 230 | 0.0 | 0.0 | 0.00 | 0.00 | 0.00 | 66 | 1012.0 |
| 20260504003410 | 12 | 230 | 0.0 | 0.0 | 0.00 | 0.00 | 0.00 | 65 | 1011.8 |
| 20260504002907 | 12 | 230 | 0.0 | 0.0 | 0.00 | 0.00 | 0.00 | 62 | 1011.7 |
| 20260504002404 | 13 | 231 | 0.0 | 0.0 | 0.00 | 0.00 | 0.00 | 62 | 1011.5 |
| 20260504001901 | 13 | 230 | 0.0 | 0.0 | 0.00 | 0.00 | 0.00 | 60 | 1011.6 |
| 20260504001359 | 13 | 231 | 0.0 | 0.0 | 0.00 | 0.00 | 0.00 | 59 | 1011.5 |
| 20260504000855 | 14 | 231 | 0.0 | 0.0 | 0.00 | 0.00 | 0.00 | 55 | 1011.6 |
| 20260504000354 | 15 | 230 | 0.0 | 0.0 | 0.00 | 0.00 | 0.00 | 54 | 1011.4 |
| 20260503235850 | 15 | 230 | 0.0 | 0.0 | 0.00 | 0.00 | 0.00 | 52 | 1011.5 |
| 20260503235348 | 15 | 230 | 0.0 | 0.0 | 0.00 | 0.00 | 0.00 | 46 | 1011.4 |
| 20260503234844 | 16 | 230 | 0.0 | 0.0 | 0.00 | 0.00 | 0.00 | 43 | 1011.5 |
| 20260503234342 | 16 | 230 | 0.0 | 1.6 | 0.00 | 0.00 | 0.00 | 42 | 1011.4 |
| 20260503233840 | 16 | 230 | 0.0 | 0.0 | 0.00 | 0.00 | 0.00 | 41 | 1011.3 |
| 20260503233336 | 16 | 230 | 0.0 | 0.0 | 0.00 | 0.00 | 0.00 | 41 | 1011.5 |
| 20260503232832 | 16 | 230 | 0.0 | 0.0 | 0.00 | 0.00 | 0.00 | 39 | 1011.5 |
| 20260503232330 | 17 | 230 | 0.0 | 0.0 | 0.00 | 0.00 | 0.00 | 40 | 1011.4 |
| 20260503231827 | 17 | 231 | 0.0 | 0.0 | 0.00 | 0.00 | 0.00 | 39 | 1011.5 |
| 20260503231324 | 17 | 230 | 0.0 | 1.6 | 0.00 | 0.00 | 0.00 | 37 | 1011.4 |
| 20260503230820 | 17 | 230 | 0.0 | 0.0 | 0.00 | 0.00 | 0.00 | 41 | 1011.5 |
| 20260503230318 | 17 | 228 | 1.6 | 1.6 | 0.00 | 0.00 | 0.00 | 38 | 1011.4 |
| 20260503225815 | 17 | 250 | 0.0 | 1.6 | 0.00 | 0.00 | 0.00 | 37 | 1011.6 |
| 20260503225311 | 17 | 250 | 0.0 | 0.0 | 0.00 | 0.00 | 0.00 | 38 | 1011.4 |
| 20260503224807 | 17 | 231 | 0.0 | 0.0 | 0.00 | 0.00 | 0.00 | 38 | 1011.5 |
| 20260503224305 | 17 | 254 | 0.0 | 0.0 | 0.00 | 0.00 | 0.00 | 37 | 1011.3 |
| 20260503223802 | 17 | 220 | 0.0 | 0.0 | 0.00 | 0.00 | 0.00 | 37 | 1011.7 |
| 20260503223300 | 17 | 249 | 0.0 | 0.0 | 0.00 | 0.00 | 0.00 | 37 | 1011.6 |
| 20260503222755 | 17 | 249 | 0.0 | 0.0 | 0.00 | 0.00 | 0.00 | 38 | 1011.6 |
| 20260503222254 | 18 | 250 | 0.0 | 0.0 | 0.00 | 0.00 | 0.00 | 41 | 1011.6 |
| 20260503221752 | 18 | 243 | 0.0 | 0.0 | 0.00 | 0.00 | 0.00 | 35 | 1011.8 |
| 20260503221249 | 18 | 287 | 1.6 | 1.6 | 0.00 | 0.00 | 0.00 | 34 | 1011.7 |
| 20260503220746 | 18 | 264 | 0.0 | 0.0 | 0.00 | 0.00 | 0.00 | 36 | 1011.6 |
| 20260503220243 | 18 | 201 | 0.0 | 0.0 | 0.00 | 0.00 | 0.00 | 33 | 1012.0 |
| 20260503215739 | 18 | 225 | 0.0 | 1.6 | 0.00 | 0.00 | 0.00 | 37 | 1011.8 |
| 20260503215237 | 18 | 232 | 1.6 | 1.6 | 0.00 | 0.00 | 0.00 | 36 | 1011.8 |
| 20260503214735 | 18 | 293 | 1.6 | 3.2 | 0.00 | 0.00 | 0.00 | 31 | 1011.9 |
| 20260503214231 | 18 | 234 | 1.6 | 3.2 | 0.00 | 0.00 | 0.00 | 34 | 1012.1 |
| 20260503213729 | 18 | 224 | 1.6 | 1.6 | 0.00 | 0.00 | 0.00 | 32 | 1012.0 |
| 20260503213226 | 18 | 31 | 1.6 | 1.6 | 0.00 | 0.00 | 0.00 | 32 | 1012.1 |
| 20260503212723 | 18 | 279 | 0.0 | 0.0 | 0.00 | 0.00 | 0.00 | 33 | 1012.4 |
| 20260503212221 | 18 | 300 | 3.2 | 3.2 | 0.00 | 0.00 | 0.00 | 31 | 1012.3 |
| 20260503211718 | 18 | 313 | 1.6 | 3.2 | 0.00 | 0.00 | 0.00 | 30 | 1012.2 |
| 20260503211214 | 18 | 258 | 1.6 | 1.6 | 0.00 | 0.00 | 0.00 | 34 | 1012.4 |
| 20260503210710 | 18 | 256 | 1.6 | 1.6 | 0.00 | 0.00 | 0.00 | 33 | 1012.5 |
| 20260503210207 | 18 | 259 | 1.6 | 1.6 | 0.00 | 0.00 | 0.00 | 34 | 1012.5 |
| 20260503205703 | 18 | 216 | 1.6 | 1.6 | 0.00 | 0.00 | 0.00 | 31 | 1012.6 |
| 20260503205159 | 18 | 71 | 1.6 | 3.2 | 0.00 | 0.00 | 0.00 | 31 | 1012.5 |
| 20260503204655 | 19 | 263 | 4.8 | 4.8 | 0.00 | 0.00 | 0.00 | 33 | 1012.6 |
| 20260503204153 | 19 | 237 | 3.2 | 3.2 | 0.00 | 0.00 | 0.00 | 33 | 1012.5 |
| 20260503203650 | 20 | 255 | 1.6 | 1.6 | 0.00 | 0.00 | 0.00 | 30 | 1012.8 |
| 20260503203148 | 19 | 238 | 1.6 | 1.6 | 0.00 | 0.00 | 0.00 | 30 | 1012.8 |
| 20260503202644 | 20 | 249 | 1.6 | 1.6 | 0.00 | 0.00 | 0.00 | 32 | 1012.8 |
| 20260503202143 | 20 | 304 | 0.0 | 0.0 | 0.00 | 0.00 | 0.00 | 31 | 1012.7 |
| 20260503201641 | 20 | 271 | 0.0 | 1.6 | 0.00 | 0.00 | 0.00 | 30 | 1012.9 |
| 20260503201138 | 20 | 210 | 1.6 | 1.6 | 0.00 | 0.00 | 0.00 | 32 | 1013.1 |
| 20260503200633 | 20 | 234 | 0.0 | 1.6 | 0.00 | 0.00 | 0.00 | 32 | 1013.2 |
| 20260503200130 | 20 | 267 | 1.6 | 3.2 | 0.00 | 0.00 | 0.00 | 32 | 1013.0 |
| 20260503195627 | 20 | 227 | 1.6 | 3.2 | 0.00 | 0.00 | 0.00 | 33 | 1013.2 |
| 20260503195124 | 20 | 268 | 0.0 | 1.6 | 0.00 | 0.00 | 0.00 | 33 | 1013.3 |
| 20260503194621 | 19 | 277 | 3.2 | 3.2 | 0.00 | 0.00 | 0.00 | 30 | 1013.4 |
| 20260503194116 | 19 | 289 | 4.8 | 4.8 | 0.00 | 0.00 | 0.00 | 32 | 1013.6 |
| 20260503193613 | 20 | 270 | 1.6 | 1.6 | 0.00 | 0.00 | 0.00 | 31 | 1013.4 |
| 20260503193109 | 19 | 247 | 3.2 | 3.2 | 0.00 | 0.00 | 0.00 | 30 | 1013.4 |
| 20260503192605 | 19 | 222 | 1.6 | 3.2 | 0.00 | 0.00 | 0.00 | 33 | 1013.7 |
| 20260503192101 | 19 | 179 | 4.8 | 4.8 | 0.00 | 0.00 | 0.00 | 31 | 1013.6 |
| 20260503191558 | 18 | 304 | 3.2 | 3.2 | 0.00 | 0.00 | 0.00 | 31 | 1013.9 |
| 20260503191054 | 18 | 233 | 4.8 | 4.8 | 0.00 | 0.00 | 0.00 | 32 | 1013.8 |
| 20260503190551 | 19 | 243 | 3.2 | 3.2 | 0.00 | 0.00 | 0.00 | 32 | 1014.1 |
| 20260503190049 | 18 | 277 | 3.2 | 3.2 | 0.00 | 0.00 | 0.00 | 30 | 1013.9 |
| 20260503185545 | 18 | 276 | 1.6 | 1.6 | 0.00 | 0.00 | 0.00 | 30 | 1014.0 |
| 20260503185045 | 18 | 281 | 1.6 | 1.6 | 0.00 | 0.00 | 0.00 | 30 | 1014.3 |
| 20260503184541 | 18 | 32 | 3.2 | 4.8 | 0.00 | 0.00 | 0.00 | 30 | 1014.3 |
| 20260503184038 | 18 | 272 | 1.6 | 3.2 | 0.00 | 0.00 | 0.00 | 30 | 1014.2 |
| 20260503183534 | 18 | 308 | 4.8 | 4.8 | 0.00 | 0.00 | 0.00 | 29 | 1014.4 |
| 20260503183031 | 18 | 281 | 3.2 | 4.8 | 0.00 | 0.00 | 0.00 | 31 | 1014.3 |